Regional Weather Roundup
Issued by NWS

Home | Current Version | Previous Version | Graphics & Text | Print | Product List | Glossary On
Versions: 1 2 3 4 5 6 7 8 9 10 11 12 13 14 15 16 17 18 19 20 21 22 23 24 25 26 27 28 29 30 31 32 33 34 35 36 37 38 39 40 41 42 43 44 45 46 47 48 49 50
000
ASUS43 KLOT 270408
RWRIL

ILLINOIS REGIONAL WEATHER ROUNDUP
NATIONAL WEATHER SERVICE CHICAGO/ROMEOVILLE IL
1100 PM CDT SUN MAR 26 2017

NOTE: "FAIR" INDICATES FEW OR NO CLOUDS BELOW 12,000 FEET WITH NO
SIGNIFICANT WEATHER AND/OR OBSTRUCTIONS TO VISIBILITY.

* THESE STATIONS ARE NOT UNDER NWS QUALITY CONTROL. THEY ALSO MAY NOT
  REPORT WEATHER SUCH AS PRECIPITATION OR FOG.

ILZ001-002-007-009-015-016-024-270500-
NORTHWEST ILLINOIS

CITY           SKY/WX    TMP DP  RH WIND       PRES   REMARKS
MOLINE         CLOUDY    49  45  86 W9        29.92S
STERLING*      CLOUDY    49  48  97 W9        29.91S
SAVANNA*       DRIZZLE   47  46  97 NW5       29.90F
$$

ILZ003-004-008-010-011-017-018-270500-
NORTH CENTRAL ILLINOIS

CITY           SKY/WX    TMP DP  RH WIND       PRES   REMARKS
ROCKFORD       CLOUDY    50  49  96 NW8       29.91R FOG
FREEPORT*      CLOUDY    47  46  99 NW6       29.92S FOG
ROCHELLE*      CLOUDY    50  50  99 W13       29.90S FOG
DE KALB*       FOG       51  50  98 W7        29.89F VSB 1/2
PERU*          CLOUDY    48  47  94 W8        29.92S FOG
$$

ILZ005-006-012>014-019>023-270500-
NORTHEAST ILLINOIS

CITY           SKY/WX    TMP DP  RH WIND       PRES   REMARKS
CHICAGO-OHARE  CLOUDY    53  49  86 SW8       29.88R
CHICAGO-MIDWAY CLOUDY    52  50  93 SW14      29.89S
AURORA         CLOUDY    51  49  92 SW9       29.89F FOG
LANSING*       CLOUDY    51  51  97 SW6       29.90S
JOLIET*        CLOUDY    51  51  99 W6        29.91S FOG
WAUKEGAN       CLOUDY    42  42 100 CALM      29.87R FOG
DUPAGE AIRPORT CLOUDY    50  50 100 SW9       29.88F FOG
KANKAKEE*      CLOUDY    51  49  92 W12       29.92F
WHEELING       CLOUDY    52  51  97 W7        29.89S
MORRIS*        CLOUDY    50  49  96 W10       29.90F FOG
ROMEOVILLE*    CLOUDY    49  49 100 W8        29.90F FOG
$$

LMZ740>746-270500-
SOUTHERN LAKE MICHIGAN

STATION/POSITION SKY/WX   TEMP    WIND        PRES    VSBY  WAVE
                          AIR SEA DIR/SP/G                  HT/PER
                          (F)     (DEG/KT/KT) (MB)    (MI)  (FT/S)
HARRISON CRIB              54     250/ 12/ 13   N/A
BURNHAM HARBOR             52     230/  8/ 11   N/A
CALUMET HARBOR             52     230/  8/ 11 1011.7R
BURNS HARBOR               53     230/ 10/ 13 1012.9R
MICHIGAN CITY              52     220/ 10/ 10   N/A
$$

ILZ025>027-034>036-040-047-049-050-058-095>099-270500-
WEST-CENTRAL ILLINOIS

CITY           SKY/WX    TMP DP  RH WIND       PRES   REMARKS
QUINCY         CLOUDY    49  45  86 N3        29.93F
GALESBURG*     CLOUDY    47  46  96 SW6       29.94R FOG
MACOMB*        CLOUDY    48  47  97 W6        29.97F FOG
JACKSONVILLE*  CLOUDY    47  45  91 N5        29.94F
PITTSFIELD*    MOCLDY    49  46  92 CALM      29.95S
$$

ILZ028>032-037-038-041>044-048-051>054-059>061-270500-
CENTRAL ILLINOIS

CITY           SKY/WX    TMP DP  RH WIND       PRES   REMARKS
PONTIAC        CLOUDY    50  50  99 W9        29.93F
BLOOMINGTON    CLOUDY    49  48  97 W9        29.95S
DECATUR        CLOUDY    53  47  79 NW9       29.95F
PEORIA         CLOUDY    50  48  93 SW7       29.95R
LACON*         CLOUDY    49  48  93 W6        29.93S
LINCOLN*       CLOUDY    52  49  89 NW3       29.95S
SPRINGFIELD    CLOUDY    52  47  83 NW5       29.95F
TAYLORVILLE    MOCLDY    48  46  93 CALM      29.95F
$$

ILZ033-039-045-046-055>057-062-063-270500-
EAST-CENTRAL ILLINOIS

CITY           SKY/WX    TMP DP  RH WIND       PRES   REMARKS
CHAMPAIGN      CLOUDY    53  47  79 W10       29.95S
RANTOUL*       CLOUDY    52  51  95 W7        29.94F
MATTOON        CLOUDY    53  49  86 SW5       29.96R
PARIS*         MOCLDY    50  48  92 SW7       29.97S
$$

ILZ079-100>102-270500-
SOUTHWEST ILLINOIS

CITY           SKY/WX    TMP DP  RH WIND       PRES   REMARKS
ALTON          PTCLDY    50  48  91 NE3       29.94F FOG
BELLEVILLE     MOCLDY    50  50 100 CALM      29.92F
CAHOKIA*       MOCLDY    52  48  86 N3        29.92F
SPARTA*        PTCLDY    54  48  80 SE5       29.94F
$$

ILZ064>066-069>071-074>076-080>082-084>086-088>090-092>094-270500-
SOUTH-CENTRAL ILLINOIS

CITY           SKY/WX    TMP DP  RH WIND       PRES   REMARKS
CARBONDALE     PTCLDY    50  47  89 SE5       29.94F
CAIRO*         PTCLDY    52  51  97 SE5       29.94F
EFFINGHAM*     CLOUDY    52  51  96 CALM      29.98S
MARION         CLOUDY    52  48  87 CALM      29.96F
MT. VERNON     MOCLDY    49  47  93 CALM      29.95F
CENTRALIA*     CLOUDY    50  49  97 SE3       29.94F
SALEM*         PTCLDY    49  47  93 CALM      29.95F FOG
METROPOLIS*    PTCLDY    50  49  97 CALM      29.96F
$$

ILZ067-068-072-073-078-083-087-091-270500-
SOUTHEAST ILLINOIS

CITY           SKY/WX    TMP DP  RH WIND       PRES   REMARKS
LAWRENCEVILLE  PTCLDY    50  48  93 S3        29.98F
FLORA*         CLOUDY    48  47  95 CALM      29.97S
FAIRFIELD*     CLOUDY    51  48  90 CALM      29.96S
HARRISBURG*    PTCLDY    49  47  94 E3        29.96F
ROBINSON*      CLOUDY    47  46  95 S5        29.98F
CARMI*         MOCLDY    48  47  96 CALM      29.97F
$$

ABBREVIATIONS USED IN REMARKS
   TC - TEMPERATURE IN CELSIUS
  WCI - WIND CHILL INDEX
   HX - HEAT INDEX
  VSB - VISIBILITY
$$




USA.gov is the U.S. government's official web portal to all federal, state and local government web resources and services.